Bei uns kannst du mitfliegen! Besuche uns und lerne uns kennen - als Gast, Pilot oder jemand der es werden möchte.

Kölner Klub für Luftsport e.V.

KKFL.de

Ausbildung – Fliegen – Abenteuer

Ausbildung im KKFL

Ausbildung

Fliegen lernen im Verein
Der KKFL.de bietet eine effiziente, schnelle Ausbildung zur Pivatpilotenlizenz (PPL) in verschiedenen Ausprägungen an. Nach der Ausbildung können diverse Ergänzungen vom Verstellpropeller bis hin zu Nachtflug oder das Fliegen nach Instrumentenflugregeln (IFR) angeschlossen werden.
Fliegen im Verein ist günstig!

Unsere Flotte

Cessna 172 S

D-EOCD
Die Cessna ist als schnelle Schul- und Reisemaschine gleichsam beliebt. Unsere vereins-eigene Flotte sorgt für Abwechlung bei den Piloten und unsere Werft senkt Kosten. In der Ausbildung dürfen Schüler über 'ihre Maschine' mit entscheiden.

Cessna 172 R

D-EFPB

Piper PA 28 II Archer

D-EFPA

Aquila A210

D-EAQJ

Piper PA 28-181

D-ELFF

Flugplatz Hangelar


[Quelle: ADDS]
METAR
EDDK 240850Z 17008KT 150V210 9999 FEW028 SCT046 14/11 Q1014 NOSIG =
EDDK 240500Z 2406/2512 17009KT 9999 BKN030
TAF
EDDK 240500Z 2406/2512 17009KT 9999 BKN030 =
SR / SS: 06:10 / 16:20 UTC (EDKB 2020-10-24)

Links und Partner

Zu unserem Heimatflugplatz Hangelar
Zu unserer Online-Verwaltung
Zum Pilotenportal der DFS
Zum Deutsche Wetterdienst - Flugwetter

Du willst fliegen?

Während unserer Bürozeiten und auch dazwischen sind wir für deine Fragen da.
Bitte kontaktiere den Verein unter den angegebenen Adressen.
© 2020 - Kölner Klub für Luftsport e.V.
Bonn / Hangelar - EDKB - Germany
Wir benutzen Cookies
Wir nutzen Cookies auf unserer Website. Einige von ihnen sind essenziell für den Betrieb der Seite (Session Cookies), während andere uns helfen, diese Website und die Nutzererfahrung zu verbessern (Tracking Cookies). Sie können selbst entscheiden, ob Sie die Cookies zulassen möchten. Bitte beachten Sie, dass bei einer Ablehnung womöglich nicht mehr alle Funktionalitäten der Seite zur Verfügung stehen.